Regional Weather Roundup
Issued by NWS

Home | Current Version | Previous Version | Graphics & Text | Print | Product List | Glossary Off
Versions: 1 2 3 4 5 6 7 8 9 10 11 12 13 14 15 16 17 18 19 20 21 22 23 24 25 26 27 28 29 30 31 32 33 34 35 36 37 38 39 40 41 42 43 44 45 46 47 48 49 50

000
ASUS43 KDMX 302107
RWRIA

WEATHER ROUNDUP FOR IOWA
NATIONAL WEATHER SERVICE DES MOINES IA
400 PM CDT TUE JUN 30 2015

NOTE: "FAIR" INDICATES FEW OR NO CLOUDS BELOW 12,000 FEET WITH NO
SIGNIFICANT WEATHER AND/OR OBSTRUCTIONS TO VISIBILITY.

* - THESE STATIONS ARE NOT NWS STATIONS...THUS NOT UNDER NWS
QUALITY CONTROL.  THEY ALSO DO NOT REPORT WEATHER SUCH
AS PRECIPITATION OR FOG.

IAZ001>003-012>014-020>022-031>034-043>046-302200-
   NORTHWEST IOWA

CITY           SKY/WX    TMP DP  RH WIND       PRES   REMARKS
CARROLL *      SUNNY     79  64  61 N5        29.91S HX  81
CHEROKEE *     CLOUDY    77  66  69 CALM      29.91S
DENISON *      SUNNY     75  68  78 SW5       29.91S
LE MARS *      PTSUNNY   73  66  78 CALM      29.92S
ORANGE CITY *  SUNNY     73  64  73 CALM      29.92F
SHELDON *      MOSUNNY   77  63  61 NE3       29.92S
SIOUX CITY     LGT RAIN  74  67  78 CALM      29.91F
SPENCER        CLOUDY    78  62  57 E5        29.93S HX  80
STORM LAKE *   SUNNY     77  64  65 CALM      29.93F
$$

IAZ055>058-069>071-079>083-090>094-302200-
   SOUTHWEST IOWA

CITY           SKY/WX    TMP DP  RH WIND       PRES   REMARKS
ATLANTIC *     CLOUDY    77  63  61 NW5       29.93R
AUDUBON *      SUNNY     79  66  65 N3        29.93F HX  81
CLARINDA *     SUNNY     79  77  94 E5        29.92F HX  83
COUNCIL BLFS * MOSUNNY   73  68  83 N7        29.93R
CRESTON *      MOSUNNY   79  61  53 NW3       29.92F HX  80
HARLAN  *      DRIZZLE   75  73  94 NW5       29.97R
LAMONI         CLOUDY    80  69  69 W8        29.92F HX  83
RED OAK *      MOSUNNY   79  68  69 NE7       29.91F HX  81
SHENANDOAH *   PTSUNNY   81  66  61 NE5       29.91S HX  83
$$

IAZ047>049-059>061-072>074-084-302200-
   CENTRAL IOWA

CITY           SKY/WX    TMP DP  RH WIND       PRES   REMARKS
AMES           PTSUNNY   77  61  57 NW9       29.90S
ANKENY *       MOSUNNY   79  64  61 VRB3G12   29.90S HX  81
CHARITON *     SUNNY     79  66  65 NW6       29.91S HX  81
DES MOINES     CLOUDY    81  63  54 NW8       29.89F HX  82
GRINNELL*      PTSUNNY   77  64  65 NW6       29.90R
KNOXVILLE *    MOSUNNY   79  64  61 NW8       29.89S HX  81
MARSHALLTOWN   CLOUDY    77  65  66 NW7       29.89R
PELLA *        MOSUNNY   79  68  69 NW8G20    29.90S HX  81
PERRY *          N/A     77  63  61 N3        29.90F
$$

IAZ004>006-015-016-023>025-035-036-302200-
   NORTH CENTRAL IOWA

CITY           SKY/WX    TMP DP  RH WIND       PRES   REMARKS
ALGONA *       SUNNY     73  63  68 N6        29.93S
CLARION *      SUNNY     75  63  64 N6        29.92S
ESTHERVILLE    CLOUDY    73  62  68 N6        29.93S
FORT DODGE *   CLOUDY    75  63  64 N5        29.93R
MASON CITY     CLOUDY    75  61  61 N8        29.93R
FOREST CITY *  SUNNY     72  59  64 N5        29.93R
IOWA FALLS *     N/A     77  63  61 NW6       29.91F
$$

IAZ007>011-017>019-026>030-037>042-050>054-066-302200-
   NORTHEAST IOWA

CITY           SKY/WX    TMP DP  RH WIND       PRES   REMARKS
CEDAR RAPIDS   MOSUNNY   80  65  59 NW9       29.86S HX  82
CHARLES CITY * MOSUNNY   75  63  64 N6        29.91S
CLINTON *      MOSUNNY   77  63  61 N12       29.88S
DECORAH *        N/A    N/A N/A N/A MISG        N/A
DUBUQUE        MOSUNNY   75  61  61 N10       29.87S
MONTICELLO *   MOSUNNY   77  77 100 N9G15     29.86S
OELWEIN *      MOSUNNY   77  63  61 N9        29.89S HAZE
WATERLOO       PTSUNNY   80  62  54 N8        29.87S HX  81
$$

IAZ064-065-067-068-078-302200-
   EAST CENTRAL IOWA

CITY           SKY/WX    TMP DP  RH WIND       PRES   REMARKS
DAVENPORT      MOSUNNY   81  64  56 NW7       29.86S HX  82
IOWA CITY      PTSUNNY   80  64  58 N10       29.86F HX  82
MT. PLEASANT * SUNNY     84  59  42 NW7       29.86S HX  84
MUSCATINE *    MOSUNNY   82  63  51 N9        29.85S HX  83
QUAD CITIES    PTSUNNY   81  62  52 NW13      29.84F HX  82
$$

IAZ062-063-075>077-085>089-095>099-302200-
   SOUTHEAST IOWA

CITY           SKY/WX    TMP DP  RH WIND       PRES   REMARKS
BURLINGTON     MOSUNNY   82  67  60 N7        29.85S HX  84
FAIRFIELD *    MOSUNNY   81  66  61 NW8       29.87S HX  83
FORT MADISON * MOSUNNY   81  70  69 NW7       29.87S HX  84
KEOKUK *       MOSUNNY   81  68  65 W6G13     29.86S HX  83
OSKALOOSA *      N/A     77  66  69 NW5       29.89S
CENTERVILLE *  SUNNY     79  64  61 W9        29.92S HX  81
OTTUMWA        MOSUNNY   78  67  68 NW8       29.87S HX  80
WASHINGTON *   SUNNY     81  66  61 NW7       29.87S HX  83
$$

ABBREVIATIONS USED IN REMARKS
   TC - TEMPERATURES IN CELSIUS
  WCI - WIND CHILL INDEX
   HX - HEAT INDEX
  VSB - VISIBILITY
$$



USA.gov is the U.S. government's official web portal to all federal, state and local government web resources and services.